TimeCDT,TemperatureF,Dew PointF,Humidity,Sea Level PressureIn,VisibilityMPH,Wind Direction,Wind SpeedMPH,Gust SpeedMPH,PrecipitationIn,Events,Conditions,WindDirDegrees,DateUTC
12:15 AM,77.7,68.0,72,30.05,10.0,SE,6.9,-,N/A,,Clear,130,2012-10-15 05:15:00
12:35 AM,77.2,68.2,74,30.05,10.0,SE,5.8,-,N/A,,Mostly Cloudy,130,2012-10-15 05:35:00
12:55 AM,77.0,68.2,74,30.05,10.0,SSE,8.1,-,N/A,,Mostly Cloudy,150,2012-10-15 05:55:00
1:15 AM,77.0,68.2,74,30.05,10.0,SSE,6.9,-,N/A,,Mostly Cloudy,160,2012-10-15 06:15:00
1:35 AM,77.2,68.0,73,30.05,10.0,SSE,6.9,-,N/A,,Overcast,160,2012-10-15 06:35:00
1:55 AM,77.2,68.0,73,30.05,10.0,South,5.8,-,N/A,,Overcast,170,2012-10-15 06:55:00
2:15 AM,77.2,67.8,73,30.05,10.0,SSE,4.6,-,N/A,,Overcast,160,2012-10-15 07:15:00
2:35 AM,77.0,67.6,73,30.04,10.0,SSE,4.6,-,N/A,,Overcast,150,2012-10-15 07:35:00
2:55 AM,76.6,67.6,74,30.04,10.0,Calm,Calm,-,N/A,,Scattered Clouds,0,2012-10-15 07:55:00
3:15 AM,75.9,67.8,76,30.04,10.0,Calm,Calm,-,N/A,,Clear,0,2012-10-15 08:15:00
3:35 AM,75.4,68.0,78,30.04,10.0,Calm,Calm,-,N/A,,Clear,0,2012-10-15 08:35:00
3:55 AM,75.0,68.0,79,30.03,10.0,Calm,Calm,-,N/A,,Mostly Cloudy,0,2012-10-15 08:55:00
4:15 AM,74.8,68.0,79,30.03,10.0,Calm,Calm,-,N/A,,Overcast,0,2012-10-15 09:15:00
4:55 AM,74.1,67.8,81,30.02,10.0,ENE,3.5,-,N/A,,Scattered Clouds,70,2012-10-15 09:55:00
5:15 AM,73.6,68.0,83,30.03,10.0,Calm,Calm,-,N/A,,Clear,0,2012-10-15 10:15:00
5:35 AM,73.4,67.8,83,30.03,10.0,Calm,Calm,-,N/A,,Clear,0,2012-10-15 10:35:00
5:55 AM,73.2,67.6,83,30.03,10.0,East,3.5,-,N/A,,Clear,80,2012-10-15 10:55:00
6:15 AM,72.9,67.6,84,30.04,10.0,Calm,Calm,-,N/A,,Scattered Clouds,0,2012-10-15 11:15:00
6:35 AM,72.5,67.6,85,30.04,10.0,Calm,Calm,-,N/A,,Overcast,0,2012-10-15 11:35:00
6:55 AM,72.5,67.6,85,30.04,10.0,NE,3.5,-,N/A,,Mostly Cloudy,50,2012-10-15 11:55:00
7:15 AM,72.9,67.6,84,30.04,10.0,NE,3.5,-,N/A,,Overcast,50,2012-10-15 12:15:00
7:35 AM,72.9,67.8,84,30.05,10.0,NE,4.6,-,N/A,,Mostly Cloudy,40,2012-10-15 12:35:00
7:55 AM,72.9,68.0,85,30.06,10.0,NNE,5.8,-,N/A,,Mostly Cloudy,20,2012-10-15 12:55:00
8:15 AM,72.9,68.2,85,30.06,10.0,NNE,5.8,-,N/A,,Mostly Cloudy,20,2012-10-15 13:15:00
8:35 AM,73.2,68.5,85,30.07,10.0,NE,6.9,-,N/A,,Overcast,40,2012-10-15 13:35:00
8:55 AM,73.8,68.5,84,30.08,10.0,NE,5.8,-,N/A,,Overcast,50,2012-10-15 13:55:00
9:15 AM,75.0,68.5,80,30.08,10.0,ENE,9.2,-,N/A,,Overcast,60,2012-10-15 14:15:00
9:35 AM,75.9,68.9,79,30.10,10.0,ENE,6.9,-,N/A,,Overcast,60,2012-10-15 14:35:00
9:55 AM,76.5,68.7,77,30.09,10.0,ESE,3.5,-,N/A,,Mostly Cloudy,120,2012-10-15 14:55:00
10:15 AM,78.4,68.9,72,30.10,10.0,Calm,Calm,-,N/A,,Scattered Clouds,0,2012-10-15 15:15:00
10:35 AM,79.7,69.1,70,30.10,10.0,East,3.5,-,N/A,,Clear,80,2012-10-15 15:35:00
10:55 AM,80.1,68.7,68,30.09,10.0,NE,3.5,-,N/A,,Clear,50,2012-10-15 15:55:00
11:15 AM,81.3,67.5,63,30.09,10.0,Calm,Calm,-,N/A,,Clear,0,2012-10-15 16:15:00
11:35 AM,81.3,66.0,60,30.09,10.0,ESE,3.5,-,N/A,,Scattered Clouds,120,2012-10-15 16:35:00
11:55 AM,82.0,65.8,58,30.08,10.0,ENE,4.6,-,N/A,,Mostly Cloudy,60,2012-10-15 16:55:00
12:15 PM,82.2,66.9,60,30.08,10.0,NE,4.6,-,N/A,,Overcast,40,2012-10-15 17:15:00
12:35 PM,83.3,65.5,55,30.07,10.0,NE,5.8,-,N/A,,Mostly Cloudy,40,2012-10-15 17:35:00
12:55 PM,84.2,65.1,53,30.05,10.0,ENE,9.2,-,N/A,,Scattered Clouds,60,2012-10-15 17:55:00
1:15 PM,84.4,64.9,52,30.04,10.0,East,5.8,-,N/A,,Scattered Clouds,80,2012-10-15 18:15:00
1:35 PM,85.5,64.4,49,30.03,10.0,East,8.1,-,N/A,,Scattered Clouds,80,2012-10-15 18:35:00
1:55 PM,86.0,63.7,47,30.02,10.0,NNE,4.6,-,N/A,,Mostly Cloudy,30,2012-10-15 18:55:00
2:15 PM,85.5,64.2,49,30.01,10.0,ENE,5.8,-,N/A,,Mostly Cloudy,60,2012-10-15 19:15:00
2:35 PM,85.3,64.4,49,30.00,10.0,ESE,3.5,-,N/A,,Scattered Clouds,120,2012-10-15 19:35:00
2:55 PM,86.5,64.0,47,29.99,10.0,NE,6.9,-,N/A,,Mostly Cloudy,50,2012-10-15 19:55:00
3:15 PM,86.2,63.9,47,29.98,10.0,East,5.8,-,N/A,,Mostly Cloudy,90,2012-10-15 20:15:00
3:35 PM,87.4,63.9,45,29.96,10.0,ESE,4.6,-,N/A,,Scattered Clouds,110,2012-10-15 20:35:00
3:55 PM,87.1,63.5,45,29.96,10.0,Calm,Calm,-,N/A,,Scattered Clouds,0,2012-10-15 20:55:00
4:15 PM,87.4,63.5,45,29.96,10.0,ENE,8.1,-,N/A,,Scattered Clouds,60,2012-10-15 21:15:00
4:35 PM,87.1,64.2,46,29.96,10.0,North,5.8,-,N/A,,Mostly Cloudy,10,2012-10-15 21:35:00
4:55 PM,86.2,64.4,48,29.96,10.0,East,8.1,-,N/A,,Scattered Clouds,80,2012-10-15 21:55:00
5:15 PM,86.0,64.2,48,29.95,10.0,ENE,5.8,-,N/A,,Mostly Cloudy,60,2012-10-15 22:15:00
5:35 PM,85.8,64.0,48,29.95,10.0,East,4.6,-,N/A,,Mostly Cloudy,80,2012-10-15 22:35:00
5:55 PM,85.6,63.7,48,29.95,10.0,ENE,8.1,-,N/A,,Overcast,60,2012-10-15 22:55:00
6:15 PM,85.1,63.5,48,29.96,10.0,ENE,6.9,-,N/A,,Overcast,60,2012-10-15 23:15:00
6:35 PM,84.7,63.3,48,29.96,10.0,ENE,6.9,-,N/A,,Overcast,60,2012-10-15 23:35:00
6:55 PM,84.4,63.0,48,29.96,10.0,NE,5.8,-,N/A,,Scattered Clouds,50,2012-10-15 23:55:00
7:15 PM,84.0,63.0,49,29.98,10.0,NE,4.6,-,N/A,,Scattered Clouds,40,2012-10-16 00:15:00
7:35 PM,83.5,63.0,50,29.98,10.0,NE,5.8,-,N/A,,Scattered Clouds,40,2012-10-16 00:35:00
7:55 PM,82.8,61.9,49,29.98,10.0,NE,5.8,-,N/A,,Clear,50,2012-10-16 00:55:00
8:15 PM,82.6,60.4,47,29.99,10.0,ENE,12.7,16.1,N/A,,Mostly Cloudy,60,2012-10-16 01:15:00
8:35 PM,82.0,55.2,40,30.00,10.0,ENE,8.1,-,N/A,,Overcast,70,2012-10-16 01:35:00
8:55 PM,81.5,55.6,41,30.00,10.0,East,8.1,-,N/A,,Scattered Clouds,80,2012-10-16 01:55:00
9:15 PM,80.4,62.6,54,30.00,10.0,East,6.9,-,N/A,,Scattered Clouds,100,2012-10-16 02:15:00
9:35 PM,79.0,64.6,61,30.00,10.0,ESE,6.9,-,N/A,Rain,Light Rain,110,2012-10-16 02:35:00
9:55 PM,76.8,66.0,69,30.00,10.0,ESE,3.5,-,N/A,Rain,Light Rain,110,2012-10-16 02:55:00
10:15 PM,75.2,67.5,77,30.01,10.0,ESE,3.5,-,N/A,,Light Drizzle,120,2012-10-16 03:15:00
10:35 PM,74.5,67.3,78,30.01,10.0,SE,4.6,-,N/A,,Clear,130,2012-10-16 03:35:00
10:55 PM,74.1,66.7,78,30.01,10.0,East,5.8,-,N/A,,Clear,100,2012-10-16 03:55:00
11:15 PM,74.3,66.2,76,30.00,10.0,ESE,5.8,-,N/A,,Clear,110,2012-10-16 04:15:00
11:35 PM,74.1,65.8,75,30.00,10.0,East,5.8,-,N/A,,Clear,100,2012-10-16 04:35:00
11:55 PM,73.8,65.7,76,30.00,10.0,East,4.6,-,N/A,,Clear,100,2012-10-16 04:55:00